sat.trackr.live / text

‹ back to catalog

EUTELSAT 5 WEST B (EGN*)

NORAD 44624 · 2019-067A

PAYLOAD ACTIVE UNKNOWN

§ Identity

Operator
Country
EUTE
Launch date
2019-10-09
Launch site
TYMSC
Launch vehicle
Mass (kg)
RCS (m²)

Purposes: comms, nav

External: N2YO · Heavens-Above · Gunter

§ Orbital elements

Epoch: 2026-09-09T03:45:57.171744Z

Period
1,436.09 min
Inclination
0.0854°
Eccentricity
0.0003159
Mean motion
1.00272346 rev/d
Perigee alt
35,773.1 km
Apogee alt
35,799.8 km
Semi-major
42,164.6 km
B*
0.0000e+0
RAAN
315.8609°
Arg perigee
216.9646°
Mean anomaly
226.8784°
Rev number
2,526

§ Raw data

EUTELSAT 5 WEST B (EGN*)1 44624U 19067A   26252.15691171 -.00000063  00000+0  00000+0 0  99992 44624   0.0854 315.8609 0003159 216.9646 226.8784  1.00272346 25260

JSON: /api/v1/satellites/44624 · /tle

For live sub-satellite position, see the globe view (requires WebGL).

§ Visibility from observer

Set your observer location to see the next 7 days of passes ≥ 10°. The values pass through the URL so the page stays shareable.

No JS? Fill the form by hand. The geolocation button needs JavaScript.